Temp
74 73 75 75 75 74 73 74 75 74 74 74 73 74 74 74 75 73 72 73 73 72 73 73 73 74 73 73 73 72 72 71 68 71 73 76 77 76 78 78 78 79 80
72 73 72 73 75 74 74 75 74 74 73 73 73 73 73 74 74 73 74 76 74 73 73 72 73 78 74 73 73 73 72 71 71 69 70 73 73 75 76 76 80 84 80
71 70 70 70 72 72 74 75 74 73 73 73 73 72 73 74 74 74 74 74 74 75 75 73 74 73 72 72 72 72 72 74 72 70 70 71 72 74 76 76 76 77 81
71 70 69 69 71 70 72 72 73 75 74 73 73 73 73 74 75 75 76 75 75 75 75 75 75 74 73 73 73 72 72 71 70 70 69 69 70 73 73 72 73 72 74
69 69 69 71 71 69 70 71 73 74 75 74 75 74 74 76 79 75 75 74 73 74 75 75 76 77 74 74 76 74 72 71 70 69 69 69 70 69 70 71 69 69 70
67 68 71 71 70 69 69 70 71 73 74 74 73 76 75 79 74 71 74 74 74 74 74 74 76 75 75 72 71 72 75 72 71 69 69 68 69 68 69 69 68 67 66
68 66 67 69 69 70 70 70 70 70 70 71 73 73 73 75 70 69 69 75 75 75 74 76 77 83 75 77 73 69 69 69 71 73 70 69 68 70 69 67 67 68 68
64 65 66 67 68 68 68 69 70 70 70 71 71 71 72 74 68 66 68 71 73 73 75 75 76 78 76 75 75 75 75 75 72 73 74 77 73 77 72 75 70 70 70
61 62 63 64 65 67 67 67 68 69 69 70 72 71 70 71 65 63 65 69 71 73 76 75 75 75 71 67 73 73 73 75 74 67 69 69 69 69 71 70 71 68 71
58 59 60 62 62 62 63 65 67 68 68 69 69 72 70 72 64 61 63 70 69 71 72 75 67 74 67 64 72 73 73 77 75 74 73 68 67 70 66 71 75 69 70
57 59 59 60 60 62 61 61 61 61 63 65 67 70 70 68 69 60 60 68 71 71 72 75 75 64 58 58 59 74 75 74 73 72 73 75 74 73 74 72 72 74 72
54 55 57 58 61 63 60 60 60 60 61 63 64 64 67 68 59 57 57 58 61 68 70 71 68 57 54 55 59 60 59 61 68 71 72 75 77 79 79 77 75 75 78
51 51 53 56 58 59 59 60 60 59 59 59 60 58 59 64 67 59 58 58 58 65 67 64 60 56 57 62 61 58 58 64 65 66 70 73 77 80 81 79 75 75 76
49 50 52 52 54 55 58 60 59 59 60 61 60 58 57 57 59 62 65 64 62 63 63 64 62 59 57 60 63 67 66 67 68 70 72 74 72 72 78 80 77 78 76
48 48 48 50 49 52 54 54 57 57 52 54 58 57 59 62 63 57 56 59 60 57 56 59 62 64 64 65 66 68 70 71 70 70 71 73 74 75 76 78 77 76 74
45 46 46 46 48 51 51 53 53 52 52 49 48 48 59 54 51 49 46 43 45 47 57 59 58 59 61 63 64 66 69 68 70 71 70 71 71 70 73 71 70 69 69
43 44 45 46 46 46 47 46 48 53 52 51 49 48 49 46 47 46 44 42 45 47 56 55 56 57 59 61 62 65 67 69 71 71 71 72 71 70 69 69 70 70 70
44 49 43 44 44 45 46 46 47 47 48 52 53 50 50 47 46 47 42 44 51 49 55 56 57 59 62 62 61 60 61 63 64 66 68 71 71 70 70 70 70 70 69
44 44 44 43 44 46 45 45 46 47 48 48 51 51 51 48 48 48 43 49 53 57 57 57 58 57 55 57 57 57 58 59 59 61 64 68 69 70 70 70 69 60 62
43 51 49 42 42 42 43 43 44 45 45 46 47 48 50 51 51 52 55 56 57 58 56 55 53 52 52 52 53 54 55 56 56 57 59 62 66 68 68 68 67 66 66
42 41 48 41 40 40 41 41 41 41 42 43 45 48 46 46 48 49 52 54 56 55 54 52 49 49 49 52 52 52 53 54 55 55 56 58 62 63 67 69 69 68 66
40 39 39 37 39 39 38 39 39 39 40 41 42 44 44 46 46 46 48 51 55 54 53 52 50 50 48 49 50 50 50 50 52 53 54 55 56 58 61 66 66 65 65
40 39 38 37 37 41 38 38 41 41 41 41 41 41 44 45 46 46 47 49 51 52 49 49 48 47 46 46 49 48 47 47 49 50 50 51 52 54 58 61 65 65 64
39 38 37 36 36 37 41 40 40 40 39 40 40 40 41 42 43 45 46 47 47 49 48 46 46 46 45 45 46 46 46 46 46 47 47 46 47 49 54 58 61 64 65
38 37 36 36 35 35 36 36 37 37 37 38 38 38 39 39 40 42 44 45 46 47 46 45 43 43 42 42 40 41 40 38 38 38 39 41 44 48 52 56 59 62 64
38 38 36 35 34 33 36 36 34 34 36 36 36 36 36 36 37 39 40 42 43 43 43 43 43 42 42 41 40 38 34 33 36 34 37 40 45 49 54 57 59 60 61
MSLP
1018.02 1018.46 1018.29 1018.17 1018.41 1018.76 1019.13 1019.45 1019.45 1019.36 1019.46 1019.54 1019.90 1020.22 1020.38 1020.60 1020.60 1020.92 1021.11 1021.26 1021.40 1021.34 1021.32 1021.37 1021.43 1021.42 1021.39 1021.34 1021.44 1021.41 1021.42 1021.58 1021.82 1021.30 1020.75 1020.02 1019.80 1019.72 1019.22 1018.65 1018.20 1017.82 1017.60
1018.20 1018.04 1018.50 1018.33 1018.26 1018.45 1018.68 1018.88 1018.99 1019.06 1019.13 1019.34 1019.64 1020.10 1020.34 1020.53 1020.57 1020.68 1020.76 1020.89 1021.09 1021.16 1021.10 1021.28 1021.28 1021.13 1021.09 1021.20 1021.24 1021.06 1021.25 1021.41 1021.53 1021.52 1021.03 1020.56 1020.14 1019.78 1019.24 1018.87 1018.15 1017.82 1017.75
1018.40 1018.92 1019.09 1019.06 1018.90 1018.50 1018.52 1018.56 1018.76 1018.82 1019.08 1019.33 1019.59 1019.90 1020.14 1020.27 1020.38 1020.50 1020.52 1020.67 1020.75 1020.79 1020.76 1020.90 1020.82 1020.99 1021.11 1021.10 1021.07 1021.15 1021.06 1021.10 1021.20 1021.23 1021.11 1020.65 1020.16 1019.67 1019.24 1018.92 1018.66 1018.27 1017.78
1018.72 1018.42 1019.36 1019.55 1019.39 1019.27 1019.13 1018.86 1018.63 1018.68 1018.85 1019.11 1019.31 1019.49 1019.84 1020.02 1020.22 1020.35 1020.39 1020.43 1020.53 1020.60 1020.54 1020.64 1020.61 1020.58 1020.66 1020.70 1020.93 1020.98 1020.94 1021.03 1021.10 1021.11 1020.93 1020.78 1020.39 1019.81 1019.72 1019.74 1019.24 1018.74 1018.25
1019.00 1019.31 1019.47 1019.27 1019.00 1018.94 1019.31 1019.13 1019.09 1018.74 1018.77 1018.86 1018.99 1019.23 1019.44 1019.76 1019.97 1020.07 1020.14 1020.17 1020.16 1020.25 1020.24 1020.31 1020.37 1020.27 1020.12 1020.18 1020.45 1020.48 1020.60 1020.72 1020.73 1020.88 1020.78 1020.61 1020.34 1020.06 1020.00 1019.79 1019.64 1019.19 1018.45
1019.14 1019.57 1018.90 1018.96 1018.96 1018.71 1019.58 1019.36 1019.10 1018.92 1018.57 1018.56 1018.78 1018.90 1019.05 1019.27 1019.40 1019.54 1019.73 1019.88 1019.86 1019.87 1019.84 1019.73 1019.76 1019.78 1019.72 1019.73 1019.77 1019.89 1019.91 1020.16 1020.09 1020.35 1020.24 1020.26 1020.02 1019.83 1019.68 1019.73 1019.51 1019.33 1018.88
1019.40 1019.49 1019.28 1019.13 1019.42 1019.28 1019.34 1019.11 1019.08 1018.97 1018.83 1018.60 1018.36 1018.52 1018.68 1018.68 1018.86 1018.94 1019.09 1019.33 1019.35 1019.26 1019.24 1019.21 1019.19 1019.18 1019.15 1019.16 1019.18 1019.24 1019.16 1019.21 1019.20 1019.34 1019.59 1019.36 1019.38 1019.08 1019.07 1019.08 1019.07 1018.99 1018.70
1020.42 1020.32 1020.21 1019.88 1019.78 1019.45 1019.32 1019.27 1019.33 1019.01 1018.70 1018.42 1018.46 1018.34 1018.34 1018.17 1018.36 1018.52 1018.50 1018.70 1018.87 1018.75 1018.70 1018.72 1018.79 1018.65 1018.54 1018.57 1018.60 1018.69 1018.58 1018.36 1018.31 1018.56 1018.53 1018.19 1018.05 1017.90 1018.32 1018.24 1018.29 1018.31 1017.94
1021.49 1021.08 1020.65 1020.49 1020.31 1020.13 1020.02 1019.91 1019.56 1019.39 1018.95 1018.40 1018.69 1018.52 1018.46 1018.25 1018.07 1018.02 1018.17 1018.26 1018.40 1018.17 1018.09 1018.08 1018.18 1018.17 1018.07 1018.21 1018.40 1018.33 1018.03 1017.65 1017.26 1017.48 1017.40 1017.19 1017.16 1017.20 1017.31 1017.99 1018.15 1018.06 1017.54
1022.50 1022.07 1021.46 1021.00 1020.68 1020.50 1020.32 1020.22 1020.12 1019.85 1019.66 1019.44 1018.96 1018.58 1018.24 1018.09 1017.99 1017.74 1017.72 1018.00 1018.12 1017.88 1017.62 1017.52 1017.53 1017.48 1017.47 1017.59 1017.83 1017.83 1017.61 1017.00 1016.93 1016.63 1016.88 1016.94 1016.85 1016.74 1016.78 1017.05 1017.00 1017.22 1017.08
1023.31 1022.74 1022.14 1021.68 1021.33 1020.98 1020.73 1020.57 1020.43 1020.16 1019.87 1019.48 1019.07 1018.86 1018.66 1018.46 1018.03 1017.72 1017.42 1017.47 1017.40 1017.27 1017.20 1017.05 1017.04 1016.94 1017.04 1017.10 1017.12 1017.22 1016.96 1016.66 1016.57 1016.54 1016.45 1016.30 1016.08 1015.93 1015.69 1015.71 1015.89 1016.14 1015.97
1023.75 1023.05 1022.56 1022.11 1021.77 1021.19 1021.02 1020.78 1020.53 1020.35 1020.14 1019.83 1019.51 1019.28 1019.11 1018.84 1018.53 1018.30 1017.82 1017.74 1017.54 1017.21 1017.08 1016.84 1016.89 1016.90 1017.00 1016.92 1016.92 1016.87 1016.70 1016.58 1016.57 1016.34 1016.05 1015.52 1015.24 1014.94 1014.73 1014.58 1014.52 1014.64 1014.40
1024.37 1023.90 1023.24 1022.54 1022.08 1021.99 1021.72 1021.37 1020.99 1020.78 1020.60 1020.34 1020.11 1019.82 1019.51 1019.18 1018.83 1018.62 1018.44 1018.14 1017.98 1017.62 1017.48 1017.29 1017.16 1016.71 1016.56 1016.54 1016.27 1016.18 1016.28 1016.25 1016.07 1015.82 1015.32 1014.80 1014.46 1014.11 1013.68 1013.52 1013.35 1013.31 1013.30
1024.72 1024.41 1023.95 1023.56 1023.03 1022.46 1022.08 1021.91 1021.68 1021.55 1021.44 1021.18 1020.74 1020.30 1019.84 1019.60 1019.13 1018.71 1018.58 1018.35 1018.16 1017.66 1017.57 1017.35 1016.98 1016.69 1016.40 1016.16 1015.79 1015.48 1015.58 1015.39 1015.14 1014.69 1014.08 1013.60 1013.48 1013.39 1012.92 1012.70 1012.72 1012.50 1012.68
1025.15 1024.70 1024.39 1023.92 1023.59 1023.16 1022.82 1022.44 1022.00 1021.94 1022.34 1022.08 1021.44 1021.05 1020.67 1020.01 1019.28 1018.86 1018.67 1018.42 1018.26 1018.04 1017.88 1017.50 1016.95 1016.54 1016.26 1016.02 1015.76 1015.38 1014.99 1014.43 1014.21 1013.90 1013.52 1013.15 1012.88 1012.60 1012.17 1012.08 1012.03 1012.09 1012.18
1025.63 1025.39 1025.15 1024.82 1024.29 1023.74 1023.21 1022.32 1022.06 1022.08 1021.79 1021.45 1021.03 1020.91 1020.48 1020.20 1019.50 1019.08 1018.62 1018.36 1018.20 1018.22 1018.11 1017.75 1017.12 1016.76 1016.54 1016.10 1015.63 1014.98 1014.45 1014.16 1013.65 1013.18 1012.99 1012.74 1012.44 1012.16 1011.74 1011.47 1011.55 1011.70 1011.99
1025.94 1025.78 1025.60 1025.25 1024.99 1024.62 1024.20 1023.78 1023.10 1021.50 1021.74 1021.36 1020.94 1020.58 1020.31 1020.22 1019.65 1019.15 1018.62 1018.41 1018.26 1018.32 1017.80 1017.12 1016.89 1016.55 1016.23 1015.81 1015.34 1014.90 1014.42 1013.94 1013.36 1012.82 1012.45 1012.20 1011.94 1011.58 1011.36 1011.10 1011.06 1011.29 1011.45
1025.68 1025.59 1025.61 1025.43 1025.18 1024.84 1024.42 1023.96 1023.55 1023.14 1022.45 1021.67 1021.45 1021.27 1020.72 1020.30 1019.95 1019.46 1018.83 1018.42 1017.96 1017.70 1017.24 1016.45 1016.18 1016.12 1015.93 1015.83 1015.72 1015.51 1015.07 1014.53 1014.00 1013.40 1012.74 1011.92 1011.43 1011.11 1010.77 1010.45 1010.31 1010.28 1010.39
1025.85 1025.74 1025.49 1025.34 1025.10 1024.80 1024.50 1024.22 1023.90 1023.42 1022.97 1022.46 1021.73 1021.04 1020.81 1020.42 1019.98 1019.51 1019.06 1018.83 1017.98 1017.17 1016.51 1016.06 1015.78 1015.83 1015.93 1015.93 1016.00 1015.83 1015.41 1014.96 1014.64 1013.98 1013.03 1012.10 1011.36 1010.77 1010.17 1009.82 1009.62 1009.55 1009.49
1025.79 1025.68 1025.55 1025.64 1025.50 1025.22 1024.96 1024.66 1024.20 1023.79 1023.27 1022.66 1022.13 1021.76 1021.32 1020.63 1019.93 1019.42 1018.89 1018.34 1017.76 1016.99 1016.52 1016.32 1016.44 1016.38 1016.19 1015.97 1015.86 1015.66 1015.31 1014.92 1014.53 1014.11 1013.47 1012.67 1011.59 1010.63 1009.99 1009.51 1009.17 1008.88 1008.68
1025.84 1026.06 1026.12 1026.09 1025.98 1025.85 1025.57 1025.30 1024.96 1024.42 1023.79 1023.19 1022.61 1022.04 1021.59 1021.22 1020.50 1019.92 1019.06 1018.33 1017.62 1017.17 1016.82 1016.59 1016.45 1016.36 1016.42 1016.23 1015.96 1015.69 1015.28 1014.78 1014.44 1014.04 1013.54 1012.83 1011.76 1010.78 1009.83 1009.09 1008.66 1008.23 1007.96
1025.75 1026.01 1026.17 1026.28 1026.06 1025.87 1025.66 1025.34 1024.94 1024.50 1024.02 1023.45 1022.86 1022.30 1021.77 1021.14 1020.35 1019.79 1019.22 1018.41 1017.62 1016.88 1016.39 1016.20 1016.04 1015.97 1015.89 1015.92 1015.58 1015.40 1015.07 1014.61 1014.20 1013.79 1013.22 1012.68 1012.09 1011.17 1009.99 1008.88 1008.23 1007.87 1007.58
1025.58 1025.84 1026.04 1026.11 1026.04 1025.74 1025.62 1025.33 1024.89 1024.52 1024.03 1023.48 1022.90 1022.16 1021.38 1020.63 1020.05 1019.44 1018.75 1018.01 1017.27 1016.52 1016.01 1015.82 1015.66 1015.52 1015.36 1015.22 1014.88 1014.81 1014.62 1014.15 1013.76 1013.50 1013.06 1012.46 1011.72 1010.92 1009.93 1008.77 1007.74 1007.14 1006.84
1024.86 1025.12 1025.33 1025.47 1025.48 1025.37 1025.19 1025.03 1024.70 1024.38 1023.96 1023.50 1023.02 1022.36 1021.58 1020.83 1019.98 1019.12 1018.39 1017.65 1017.06 1016.26 1015.76 1015.43 1015.29 1015.13 1014.78 1014.50 1014.24 1013.98 1013.72 1013.44 1013.19 1012.82 1012.66 1012.17 1011.33 1010.39 1009.42 1008.31 1007.34 1006.62 1006.06
1024.56 1024.81 1024.99 1025.10 1025.12 1024.89 1024.62 1024.43 1024.17 1023.78 1023.37 1022.95 1022.42 1021.98 1021.50 1020.74 1019.90 1018.79 1017.95 1017.16 1016.34 1015.50 1015.11 1014.88 1014.64 1014.52 1014.21 1013.78 1013.45 1013.13 1012.88 1012.61 1012.52 1012.24 1012.10 1011.57 1010.56 1009.52 1008.57 1007.56 1006.64 1005.88 1005.28
1024.27 1024.50 1024.67 1024.77 1024.89 1024.72 1024.38 1023.97 1023.60 1023.26 1022.80 1022.20 1021.64 1021.12 1020.60 1019.88 1019.13 1018.30 1017.42 1016.68 1015.91 1015.23 1014.72 1014.31 1013.94 1013.67 1013.38 1012.95 1012.64 1012.32 1012.02 1011.56 1011.25 1010.84 1010.76 1010.32 1009.26 1008.13 1007.26 1006.42 1005.73 1005.12 1004.58
Wind_Speed
5 4 8 9 8 7 6 6 7 5 6 7 7 6 6 6 6 6 6 6 6 5 3 3 3 2 2 2 1 1 2 2 1 3 2 3 3 4 7 5 5 5 5
3 3 5 5 7 8 7 7 6 7 5 6 6 6 6 7 6 6 6 5 6 5 6 4 6 3 3 2 2 2 1 2 2 2 2 2 4 2 5 6 6 5 5
5 7 6 5 5 6 6 6 6 6 6 6 5 7 7 6 6 7 6 6 6 6 6 6 7 4 5 3 3 3 2 1 2 2 3 2 3 2 4 3 4 5 5
3 4 4 4 7 7 6 5 6 7 6 7 7 7 7 6 6 7 7 7 6 6 6 6 7 6 6 6 4 6 4 3 1 1 3 3 2 2 1 2 5 2 5
6 7 6 3 2 5 8 5 4 5 6 7 6 7 6 6 6 7 6 7 7 7 6 6 7 9 10 8 3 6 4 3 2 2 3 1 3 3 2 2 3 3 5
6 4 3 4 3 3 7 6 5 5 6 6 6 8 8 7 10 11 8 6 7 7 7 7 7 8 9 11 12 12 9 6 5 3 3 4 4 3 3 3 2 2 4
9 7 6 6 2 4 5 2 5 5 4 5 6 6 7 8 11 11 12 7 7 8 8 8 7 7 9 7 8 10 9 10 9 5 6 6 4 5 3 3 4 3 4
8 6 6 6 6 5 5 4 3 3 4 4 4 6 5 6 11 11 12 6 6 7 7 7 9 10 8 8 7 6 7 7 8 7 9 12 8 9 6 5 4 4 4
10 9 9 7 6 5 6 6 5 5 5 7 6 6 5 7 11 11 7 6 6 9 8 7 8 9 10 11 7 8 8 8 8 13 14 15 15 14 8 2 6 3 7
9 8 7 8 7 6 6 6 4 4 4 4 6 5 7 6 10 10 6 4 6 6 7 8 11 12 11 12 8 8 9 11 7 7 5 8 13 11 13 10 8 8 6
7 7 7 7 7 5 5 4 5 5 5 5 5 4 6 7 7 10 9 3 5 4 5 6 5 9 7 10 9 8 11 8 6 5 5 5 5 7 7 7 9 9 7
7 9 9 9 7 7 7 5 6 5 6 6 6 5 4 4 6 8 9 4 6 3 5 3 1 7 6 7 4 8 11 9 4 5 6 8 9 9 8 7 10 11 11
6 7 8 8 9 9 7 9 7 6 5 4 4 4 5 5 4 5 6 4 1 2 2 4 12 9 8 6 7 8 7 4 4 5 8 9 8 9 10 8 7 9 11
6 7 7 7 9 8 6 6 5 6 7 8 7 6 5 5 5 5 4 4 5 4 5 5 6 9 9 7 5 5 5 7 8 9 10 10 7 7 11 10 9 9 8
6 6 6 6 7 7 6 5 6 5 3 5 5 5 7 9 7 8 5 5 3 3 5 4 4 4 4 5 5 6 6 6 6 7 9 9 9 8 9 8 8 8 8
4 4 4 4 5 6 7 10 4 6 14 12 9 3 7 9 16 15 12 12 9 4 3 3 4 4 5 6 6 6 6 6 7 7 7 8 8 7 9 6 4 4 6
4 4 4 4 4 4 4 4 8 13 8 12 14 14 15 10 16 18 14 9 10 4 4 4 4 4 5 5 5 5 6 7 9 7 6 7 7 8 8 8 7 4 5
5 7 3 3 4 4 4 4 4 6 9 10 9 11 14 16 16 18 12 7 5 4 6 5 4 4 2 4 6 7 8 9 9 10 11 9 7 7 8 8 8 8 7
4 3 4 4 4 5 4 5 4 6 7 8 9 9 10 13 14 14 4 4 8 8 6 4 1 3 2 3 5 7 7 8 9 11 10 9 9 8 9 8 7 10 10
4 9 7 4 4 5 4 5 6 7 8 8 8 8 9 13 11 10 9 6 9 6 4 4 3 3 3 3 4 5 6 7 8 8 10 11 10 10 10 9 8 8 9
3 3 8 4 4 4 4 5 6 7 8 8 9 10 14 9 9 10 10 9 7 3 2 1 2 2 3 5 5 8 9 9 7 8 9 11 11 11 11 9 10 8 7
3 2 2 2 3 4 4 4 5 6 7 8 9 10 16 11 10 10 10 11 11 6 3 3 3 3 4 4 5 6 10 10 9 8 9 10 10 11 11 11 8 8 7
3 1 1 2 2 6 4 5 8 9 8 9 11 11 10 10 11 13 12 11 10 10 4 4 4 4 4 4 5 6 8 10 8 8 10 11 11 11 11 11 10 9 9
2 1 2 3 3 4 6 8 8 11 10 9 9 10 10 11 12 13 13 12 12 12 5 4 4 7 7 7 6 7 8 9 8 8 12 12 13 13 12 12 12 13 10
2 2 3 4 4 4 6 7 8 7 8 8 9 9 10 11 12 12 12 12 11 9 7 7 6 9 11 12 10 11 11 13 11 13 9 14 16 18 15 13 13 12 13
4 4 3 3 4 4 5 6 7 8 10 10 10 10 11 11 12 12 11 12 10 9 9 8 9 12 12 10 11 11 10 13 13 13 10 11 12 12 12 14 18 12 13
Wind_Direction
194 237 206 201 197 204 188 210 219 203 194 182 190 196 199 212 207 196 211 225 229 247 252 228 260 280 307 340 22 76 64 88 133 299 275 316 306 323 315 300 280 292 309
356 192 226 220 215 201 206 203 203 203 195 189 184 202 206 214 220 211 214 218 226 239 253 249 255 257 286 302 290 9 132 147 132 280 277 298 251 282 271 306 342 351 342
55 31 13 3 320 242 220 204 194 203 194 198 199 207 217 216 211 220 214 225 235 238 238 248 260 243 268 258 263 284 277 217 189 198 276 260 276 322 341 342 350 329 319
107 357 314 331 21 2 323 266 203 204 202 199 205 204 216 228 223 223 214 217 226 242 244 235 249 244 247 257 247 250 255 276 272 286 284 277 261 307 17 303 330 325 307
150 166 193 243 341 20 330 339 320 236 213 212 213 213 209 214 226 218 220 223 215 229 238 241 249 243 231 238 220 252 238 245 248 253 268 257 279 312 280 264 273 290 294
65 65 87 159 187 199 266 269 339 304 247 226 216 216 217 224 223 211 207 217 230 232 233 231 230 242 249 247 242 236 228 223 236 198 238 243 261 239 232 230 257 317 318
52 41 38 72 77 114 196 249 333 328 330 266 240 213 221 225 229 223 220 231 229 229 230 238 247 243 224 237 245 240 252 238 228 197 229 239 246 237 233 265 229 226 242
25 31 40 45 39 24 30 41 357 344 347 350 317 271 251 231 226 230 234 235 238 241 236 231 236 246 236 224 235 243 243 238 224 219 230 253 234 254 204 247 242 253 272
13 14 12 15 25 35 32 2 14 351 339 344 329 317 294 275 256 246 234 223 242 251 246 230 221 239 239 232 240 251 258 260 243 227 230 237 240 240 246 115 275 264 287
355 351 352 4 10 16 11 357 351 342 314 285 290 293 278 275 267 261 253 228 239 242 248 248 234 240 237 225 226 238 256 262 250 259 245 255 250 252 240 216 241 247 258
345 349 356 355 345 350 339 337 336 336 328 324 304 318 20 10 321 327 254 219 241 240 240 259 248 243 278 261 242 257 256 291 284 268 263 260 249 242 241 222 218 224 239
350 351 349 351 356 349 344 325 336 354 358 1 22 8 7 26 31 23 33 287 317 279 274 292 341 342 318 292 288 251 261 276 261 266 264 265 266 263 253 233 221 221 232
8 355 349 354 0 2 3 6 355 351 354 343 355 345 330 333 335 358 19 26 327 294 289 287 287 304 303 301 271 256 260 241 229 236 253 256 258 267 270 258 235 228 240
9 6 1 3 354 353 358 0 1 6 2 354 337 328 318 319 315 313 306 316 310 308 315 301 288 279 263 263 297 287 237 233 234 251 258 258 256 254 259 250 247 248 242
12 360 356 351 347 349 354 339 341 355 39 345 333 325 327 322 303 280 282 298 307 1 325 312 318 316 303 294 286 262 265 268 249 244 254 261 264 264 262 260 252 255 247
13 346 336 346 350 354 346 338 348 345 326 333 323 228 333 286 300 304 287 301 305 279 262 272 277 270 273 277 277 290 288 276 271 264 254 258 261 259 262 259 227 219 254
20 347 355 354 338 333 335 335 330 335 336 329 333 344 349 340 344 335 326 285 274 209 233 245 258 272 271 267 268 281 306 310 300 282 273 272 261 255 246 252 242 213 235
19 22 20 346 335 330 322 316 310 320 323 331 338 332 328 335 341 337 342 314 302 215 254 237 236 252 305 1 355 345 330 325 318 319 321 295 268 263 263 249 234 223 216
24 358 353 350 346 347 342 333 324 321 319 315 320 324 340 332 333 330 311 290 294 295 267 244 208 71 46 28 340 321 317 321 320 314 311 308 306 280 272 260 242 218 223
21 360 8 0 344 339 331 328 330 329 321 316 318 320 324 325 325 324 317 331 339 335 8 39 24 11 351 333 313 302 306 308 311 310 309 307 303 296 290 274 249 237 229
45 32 20 15 353 336 331 330 321 317 315 315 314 315 314 314 310 309 307 301 293 271 275 285 321 328 323 325 311 311 306 303 300 300 301 301 302 308 298 281 276 255 247
86 47 19 341 313 315 311 307 307 311 308 308 310 309 308 301 296 296 294 293 296 265 244 244 234 223 232 254 284 289 294 295 295 291 291 293 296 292 291 283 262 255 259
128 108 298 288 286 325 320 315 320 317 312 311 312 308 304 303 299 295 291 284 281 273 240 243 252 264 251 255 257 257 272 279 280 284 286 286 284 282 281 281 276 257 246
119 354 327 318 318 316 326 325 321 318 314 310 305 300 299 302 297 289 286 284 288 285 269 257 258 278 281 271 263 258 256 268 273 277 283 280 277 276 272 269 263 265 254
171 261 297 298 295 303 330 328 318 313 314 306 306 303 299 293 292 287 284 280 277 271 273 282 278 267 266 270 263 260 257 260 266 268 270 265 263 267 267 267 268 265 257
193 209 246 277 290 296 305 312 311 316 317 316 313 311 307 302 298 295 295 292 294 292 284 277 270 262 268 269 266 268 275 272 274 264 255 255 258 263 262 261 262 257 250